Time,TemperatureF,DewpointF,PressureIn,WindDirection,WindDirectionDegrees,WindSpeedMPH,WindSpeedGustMPH,Humidity,HourlyPrecipIn,Conditions,Clouds,dailyrainin,SoftwareType,DateUTC
2013-04-25 00:01:00,52.5,49.0,29.12,SSW,202,6.0,9.0,88,0.00,,,0.00,Rainwise IP-100,2013-04-25 04:01:00,
2013-04-25 00:06:00,52.4,48.0,29.12,SW,225,9.0,12.0,88,0.00,,,0.00,Rainwise IP-100,2013-04-25 04:06:00,
2013-04-25 00:11:00,52.3,48.0,29.12,SW,225,9.0,16.0,88,0.00,,,0.00,Rainwise IP-100,2013-04-25 04:11:00,
2013-04-25 00:16:00,52.2,48.0,29.12,SSE,157,7.0,12.0,87,0.00,,,0.00,Rainwise IP-100,2013-04-25 04:16:00,
2013-04-25 00:21:00,52.1,48.0,29.12,SSE,157,5.0,13.0,88,0.00,,,0.00,Rainwise IP-100,2013-04-25 04:21:00,
2013-04-25 00:26:00,51.9,48.0,29.13,West,270,4.0,13.0,88,0.00,,,0.00,Rainwise IP-100,2013-04-25 04:26:00,
2013-04-25 00:31:00,51.7,48.0,29.13,SSW,202,4.0,10.0,88,0.00,,,0.00,Rainwise IP-100,2013-04-25 04:31:00,
2013-04-25 00:37:00,51.6,48.0,29.13,WSW,247,6.0,10.0,88,0.00,,,0.00,Rainwise IP-100,2013-04-25 04:37:00,
2013-04-25 00:42:00,51.4,48.0,29.13,SSE,157,4.0,10.0,89,0.00,,,0.00,Rainwise IP-100,2013-04-25 04:42:00,
2013-04-25 00:47:00,51.2,48.0,29.13,SSW,202,5.0,12.0,89,0.00,,,0.00,Rainwise IP-100,2013-04-25 04:47:00,
2013-04-25 00:52:00,51.1,48.0,29.14,North,360,5.0,12.0,89,0.00,,,0.00,Rainwise IP-100,2013-04-25 04:52:00,
2013-04-25 00:57:00,51.1,48.0,29.13,SSW,202,2.0,10.0,90,0.00,,,0.00,Rainwise IP-100,2013-04-25 04:57:00,
2013-04-25 01:02:00,51.1,48.0,29.14,SE,135,11.0,11.0,90,0.00,,,0.00,Rainwise IP-100,2013-04-25 05:02:00,
2013-04-25 01:07:00,51.2,48.0,29.13,SSE,157,10.0,13.0,90,0.00,,,0.00,Rainwise IP-100,2013-04-25 05:07:00,
2013-04-25 01:13:00,51.2,48.0,29.13,West,270,3.0,13.0,90,0.00,,,0.00,Rainwise IP-100,2013-04-25 05:13:00,
2013-04-25 01:18:00,51.1,48.0,29.13,SSE,157,11.0,14.0,90,0.00,,,0.00,Rainwise IP-100,2013-04-25 05:18:00,
2013-04-25 01:23:00,50.8,49.0,29.14,NW,315,3.0,13.0,91,0.00,,,0.00,Rainwise IP-100,2013-04-25 05:23:00,
2013-04-25 01:28:00,50.8,49.0,29.16,SW,225,8.0,15.0,92,0.00,,,0.00,Rainwise IP-100,2013-04-25 05:28:00,
2013-04-25 01:33:00,50.7,48.0,29.16,SSW,202,6.0,11.0,92,0.00,,,0.00,Rainwise IP-100,2013-04-25 05:33:00,
2013-04-25 01:38:00,50.5,48.0,29.17,ESE,112,1.0,8.0,92,0.00,,,0.00,Rainwise IP-100,2013-04-25 05:38:00,
2013-04-25 01:43:00,50.2,47.5,29.17,North,360,0.0,8.0,92,0.00,,,0.00,Rainwise IP-100,2013-04-25 05:43:00,
2013-04-25 01:48:00,50.1,47.5,29.17,South,180,2.0,7.0,92,0.00,,,0.00,Rainwise IP-100,2013-04-25 05:48:00,
2013-04-25 01:54:00,49.9,47.5,29.17,SSW,202,3.0,7.0,92,0.06,,,0.01,Rainwise IP-100,2013-04-25 05:54:00,
2013-04-25 01:59:00,49.8,48.0,29.18,SSE,157,2.0,7.0,94,0.06,,,0.01,Rainwise IP-100,2013-04-25 05:59:00,
2013-04-25 02:04:00,49.7,48.0,29.18,SE,135,2.0,7.0,95,0.00,,,0.01,Rainwise IP-100,2013-04-25 06:04:00,
2013-04-25 02:09:00,49.6,48.0,29.18,SE,135,1.0,7.0,94,0.00,,,0.01,Rainwise IP-100,2013-04-25 06:09:00,
2013-04-25 02:14:00,49.5,48.0,29.18,WSW,247,7.0,7.0,94,0.00,,,0.01,Rainwise IP-100,2013-04-25 06:14:00,
2013-04-25 02:19:00,49.6,49.0,29.19,WSW,247,5.0,7.0,97,0.06,,,0.02,Rainwise IP-100,2013-04-25 06:19:00,
2013-04-25 02:24:00,49.5,49.0,29.19,North,360,2.0,5.0,97,0.06,,,0.02,Rainwise IP-100,2013-04-25 06:24:00,
2013-04-25 02:30:00,49.9,48.0,29.19,WSW,247,13.0,13.0,95,0.00,,,0.02,Rainwise IP-100,2013-04-25 06:30:00,
2013-04-25 02:35:00,50.8,47.5,29.19,NW,315,5.0,21.0,87,0.00,,,0.02,Rainwise IP-100,2013-04-25 06:35:00,
2013-04-25 02:41:00,50.4,46.0,29.20,SW,225,13.0,19.0,84,0.00,,,0.02,Rainwise IP-100,2013-04-25 06:41:00,
2013-04-25 02:46:00,50.1,44.0,29.21,WSW,247,12.0,19.0,81,0.00,,,0.02,Rainwise IP-100,2013-04-25 06:46:00,
2013-04-25 02:51:00,49.7,45.0,29.21,WSW,247,9.0,17.0,83,0.00,,,0.02,Rainwise IP-100,2013-04-25 06:51:00,
2013-04-25 02:56:00,49.3,44.0,29.22,SW,225,8.0,16.0,82,0.00,,,0.02,Rainwise IP-100,2013-04-25 06:56:00,
2013-04-25 03:01:00,49.0,43.0,29.21,WSW,247,9.0,15.0,81,0.00,,,0.02,Rainwise IP-100,2013-04-25 07:01:00,
2013-04-25 03:06:00,48.7,44.0,29.21,WSW,247,4.0,13.0,82,0.00,,,0.02,Rainwise IP-100,2013-04-25 07:06:00,
2013-04-25 03:11:00,48.6,43.0,29.23,SW,225,10.0,26.0,80,0.00,,,0.02,Rainwise IP-100,2013-04-25 07:11:00,
2013-04-25 03:16:00,48.2,42.0,29.22,West,270,9.0,17.0,80,0.00,,,0.02,Rainwise IP-100,2013-04-25 07:16:00,
2013-04-25 03:22:00,47.9,41.0,29.23,WSW,247,8.0,20.0,75,0.00,,,0.02,Rainwise IP-100,2013-04-25 07:22:00,
2013-04-25 03:27:00,47.7,40.0,29.23,WSW,247,7.0,20.0,75,0.00,,,0.02,Rainwise IP-100,2013-04-25 07:27:00,
2013-04-25 03:30:00,47.4,40.0,29.23,SSW,202,11.0,20.0,75,0.00,,,0.02,Rainwise IP-100,2013-04-25 07:30:00,
2013-04-25 03:35:00,47.2,39.0,29.24,WSW,247,11.0,17.0,76,0.00,,,0.02,Rainwise IP-100,2013-04-25 07:35:00,
2013-04-25 03:40:00,46.6,40.0,29.25,SSW,202,9.0,17.0,77,0.00,,,0.02,Rainwise IP-100,2013-04-25 07:40:00,
2013-04-25 03:45:00,46.2,39.0,29.25,WSW,247,5.0,23.0,77,0.00,,,0.02,Rainwise IP-100,2013-04-25 07:45:00,
2013-04-25 03:51:00,45.9,39.0,29.26,WSW,247,6.0,12.0,79,0.00,,,0.02,Rainwise IP-100,2013-04-25 07:51:00,
2013-04-25 03:56:00,45.7,40.0,29.26,SW,225,7.0,16.0,80,0.00,,,0.02,Rainwise IP-100,2013-04-25 07:56:00,
2013-04-25 04:01:00,45.5,39.0,29.26,NW,315,8.0,19.0,79,0.00,,,0.02,Rainwise IP-100,2013-04-25 08:01:00,
2013-04-25 04:06:00,45.3,38.0,29.27,NW,315,11.0,16.0,77,0.00,,,0.02,Rainwise IP-100,2013-04-25 08:06:00,
2013-04-25 04:11:00,45.2,37.0,29.27,SSW,202,10.0,23.0,74,0.00,,,0.02,Rainwise IP-100,2013-04-25 08:11:00,
2013-04-25 04:16:00,45.1,37.0,29.27,SW,225,16.0,20.0,73,0.00,,,0.02,Rainwise IP-100,2013-04-25 08:16:00,
2013-04-25 04:21:00,45.2,36.0,29.28,SW,225,6.0,22.0,71,0.00,,,0.02,Rainwise IP-100,2013-04-25 08:21:00,
2013-04-25 04:26:00,45.2,36.0,29.28,WNW,292,8.0,14.0,71,0.00,,,0.02,Rainwise IP-100,2013-04-25 08:26:00,
2013-04-25 04:32:00,45.1,37.0,29.29,WSW,247,8.0,10.0,72,0.00,,,0.02,Rainwise IP-100,2013-04-25 08:32:00,
2013-04-25 04:37:00,44.9,37.0,29.28,WNW,292,8.0,12.0,72,0.00,,,0.02,Rainwise IP-100,2013-04-25 08:37:00,
2013-04-25 04:42:00,44.5,36.0,29.28,WSW,247,7.0,17.0,71,0.00,,,0.02,Rainwise IP-100,2013-04-25 08:42:00,
2013-04-25 04:47:00,44.3,36.0,29.28,West,270,12.0,16.0,71,0.00,,,0.02,Rainwise IP-100,2013-04-25 08:47:00,
2013-04-25 04:52:00,44.1,36.0,29.29,West,270,11.0,16.0,71,0.00,,,0.02,Rainwise IP-100,2013-04-25 08:52:00,
2013-04-25 04:57:00,43.8,35.0,29.28,WNW,292,12.0,16.0,70,0.00,,,0.02,Rainwise IP-100,2013-04-25 08:57:00,
2013-04-25 05:02:00,43.6,35.0,29.27,SSW,202,7.0,16.0,70,0.00,,,0.02,Rainwise IP-100,2013-04-25 09:02:00,
2013-04-25 05:08:00,43.6,35.0,29.29,West,270,9.0,19.0,69,0.00,,,0.02,Rainwise IP-100,2013-04-25 09:08:00,
2013-04-25 05:13:00,43.4,33.0,29.29,WSW,247,6.0,19.0,69,0.00,,,0.02,Rainwise IP-100,2013-04-25 09:13:00,
2013-04-25 05:18:00,43.4,33.0,29.28,WSW,247,8.0,25.0,69,0.00,,,0.02,Rainwise IP-100,2013-04-25 09:18:00,
2013-04-25 05:23:00,43.1,33.0,29.28,NW,315,10.0,17.0,69,0.00,,,0.02,Rainwise IP-100,2013-04-25 09:23:00,
2013-04-25 05:28:00,42.9,33.0,29.28,West,270,8.0,22.0,69,0.00,,,0.02,Rainwise IP-100,2013-04-25 09:28:00,
2013-04-25 05:33:00,42.8,33.0,29.29,SW,225,9.0,18.0,69,0.00,,,0.02,Rainwise IP-100,2013-04-25 09:33:00,
2013-04-25 05:38:00,42.8,35.0,29.29,NW,315,10.0,23.0,71,0.06,,,0.03,Rainwise IP-100,2013-04-25 09:38:00,
2013-04-25 05:43:00,42.8,33.0,29.29,WNW,292,4.0,17.0,69,0.06,,,0.03,Rainwise IP-100,2013-04-25 09:43:00,
2013-04-25 05:49:00,42.6,35.0,29.29,NNW,337,3.0,18.0,70,0.00,,,0.03,Rainwise IP-100,2013-04-25 09:49:00,
2013-04-25 05:54:00,42.7,33.0,29.30,WNW,292,9.0,22.0,69,0.00,,,0.03,Rainwise IP-100,2013-04-25 09:54:00,
2013-04-25 05:59:00,42.5,33.0,29.31,NW,315,8.0,17.0,69,0.00,,,0.03,Rainwise IP-100,2013-04-25 09:59:00,
2013-04-25 06:04:00,42.3,32.0,29.31,NW,315,9.0,15.0,68,0.00,,,0.03,Rainwise IP-100,2013-04-25 10:04:00,
2013-04-25 06:09:00,42.2,33.0,29.32,West,270,9.0,16.0,69,0.00,,,0.03,Rainwise IP-100,2013-04-25 10:09:00,
2013-04-25 06:14:00,42.2,32.0,29.32,NW,315,5.0,19.0,68,0.00,,,0.03,Rainwise IP-100,2013-04-25 10:14:00,
2013-04-25 06:19:00,42.2,33.0,29.33,NW,315,10.0,13.0,69,0.00,,,0.03,Rainwise IP-100,2013-04-25 10:19:00,
2013-04-25 06:25:00,42.4,32.0,29.33,WNW,292,9.0,17.0,68,0.00,,,0.03,Rainwise IP-100,2013-04-25 10:25:00,
2013-04-25 06:30:00,42.4,33.0,29.34,NNW,337,6.0,20.0,69,0.00,,,0.03,Rainwise IP-100,2013-04-25 10:30:00,
2013-04-25 06:35:00,42.4,32.0,29.34,WSW,247,7.0,17.0,68,0.00,,,0.03,Rainwise IP-100,2013-04-25 10:35:00,
2013-04-25 06:40:00,42.6,33.0,29.35,West,270,6.0,15.0,68,0.00,,,0.03,Rainwise IP-100,2013-04-25 10:40:00,
2013-04-25 06:45:00,42.7,33.0,29.35,WNW,292,10.0,15.0,69,0.00,,,0.03,Rainwise IP-100,2013-04-25 10:45:00,
2013-04-25 06:50:00,42.5,33.0,29.35,WSW,247,12.0,16.0,68,0.00,,,0.03,Rainwise IP-100,2013-04-25 10:50:00,
2013-04-25 06:55:00,42.3,32.0,29.35,WNW,292,6.0,16.0,68,0.00,,,0.03,Rainwise IP-100,2013-04-25 10:55:00,
2013-04-25 07:00:00,42.4,32.0,29.35,NNW,337,6.0,13.0,68,0.00,,,0.03,Rainwise IP-100,2013-04-25 11:00:00,
2013-04-25 07:06:00,43.0,33.0,29.36,WNW,292,3.0,11.0,67,0.00,,,0.03,Rainwise IP-100,2013-04-25 11:06:00,
2013-04-25 07:11:00,43.4,32.0,29.37,SSW,202,7.0,12.0,65,0.00,,,0.03,Rainwise IP-100,2013-04-25 11:11:00,
2013-04-25 07:16:00,43.9,33.0,29.37,WSW,247,9.0,15.0,66,0.00,,,0.03,Rainwise IP-100,2013-04-25 11:16:00,
2013-04-25 07:21:00,43.8,33.0,29.37,WSW,247,2.0,15.0,66,0.00,,,0.03,Rainwise IP-100,2013-04-25 11:21:00,
2013-04-25 07:26:00,44.4,33.0,29.37,ENE,67,4.0,11.0,65,0.00,,,0.03,Rainwise IP-100,2013-04-25 11:26:00,
2013-04-25 07:31:00,45.1,35.0,29.38,WNW,292,2.0,10.0,65,0.00,,,0.03,Rainwise IP-100,2013-04-25 11:31:00,
2013-04-25 07:36:00,44.8,32.0,29.38,West,270,11.0,18.0,61,0.00,,,0.03,Rainwise IP-100,2013-04-25 11:36:00,
2013-04-25 07:42:00,45.0,33.0,29.38,North,360,2.0,15.0,64,0.00,,,0.03,Rainwise IP-100,2013-04-25 11:42:00,
2013-04-25 07:47:00,46.0,33.0,29.39,NE,45,4.0,16.0,61,0.00,,,0.03,Rainwise IP-100,2013-04-25 11:47:00,
2013-04-25 07:52:00,45.8,32.0,29.40,WNW,292,2.0,12.0,58,0.00,,,0.03,Rainwise IP-100,2013-04-25 11:52:00,
2013-04-25 07:57:00,46.3,33.0,29.39,North,360,9.0,17.0,60,0.00,,,0.03,Rainwise IP-100,2013-04-25 11:57:00,
2013-04-25 08:02:00,46.3,33.0,29.41,WNW,292,8.0,12.0,61,0.00,,,0.03,Rainwise IP-100,2013-04-25 12:02:00,
2013-04-25 08:07:00,45.1,32.0,29.41,WNW,292,11.0,21.0,61,0.00,,,0.03,Rainwise IP-100,2013-04-25 12:07:00,
2013-04-25 08:12:00,45.1,33.0,29.41,WSW,247,12.0,14.0,62,0.00,,,0.03,Rainwise IP-100,2013-04-25 12:12:00,
2013-04-25 08:17:00,45.3,32.0,29.41,NW,315,10.0,14.0,61,0.00,,,0.03,Rainwise IP-100,2013-04-25 12:17:00,
2013-04-25 08:23:00,44.9,32.0,29.41,WSW,247,12.0,16.0,61,0.00,,,0.03,Rainwise IP-100,2013-04-25 12:23:00,
2013-04-25 08:28:00,44.3,32.0,29.41,West,270,9.0,23.0,62,0.00,,,0.03,Rainwise IP-100,2013-04-25 12:28:00,
2013-04-25 08:33:00,43.5,32.0,29.42,West,270,9.0,16.0,62,0.00,,,0.03,Rainwise IP-100,2013-04-25 12:33:00,
2013-04-25 08:38:00,43.9,33.0,29.42,NNW,337,9.0,15.0,64,0.00,,,0.03,Rainwise IP-100,2013-04-25 12:38:00,
2013-04-25 08:43:00,44.5,32.0,29.43,WNW,292,12.0,18.0,60,0.00,,,0.03,Rainwise IP-100,2013-04-25 12:43:00,
2013-04-25 08:48:00,44.4,31.0,29.43,West,270,12.0,17.0,60,0.00,,,0.03,Rainwise IP-100,2013-04-25 12:48:00,
2013-04-25 08:53:00,45.1,32.0,29.43,WNW,292,6.0,19.0,61,0.00,,,0.03,Rainwise IP-100,2013-04-25 12:53:00,
2013-04-25 08:59:00,45.5,32.0,29.43,WNW,292,10.0,17.0,58,0.00,,,0.03,Rainwise IP-100,2013-04-25 12:59:00,
2013-04-25 09:04:00,46.3,33.0,29.43,NW,315,9.0,11.0,60,0.00,,,0.03,Rainwise IP-100,2013-04-25 13:04:00,
2013-04-25 09:09:00,45.9,32.0,29.43,WSW,247,8.0,14.0,58,0.00,,,0.03,Rainwise IP-100,2013-04-25 13:09:00,
2013-04-25 09:14:00,46.7,33.0,29.43,West,270,9.0,12.0,58,0.00,,,0.03,Rainwise IP-100,2013-04-25 13:14:00,
2013-04-25 09:19:00,47.4,33.0,29.44,NNW,337,10.0,12.0,58,0.00,,,0.03,Rainwise IP-100,2013-04-25 13:19:00,
2013-04-25 09:24:00,47.1,33.0,29.44,WNW,292,12.0,18.0,58,0.00,,,0.03,Rainwise IP-100,2013-04-25 13:24:00,
2013-04-25 09:29:00,47.2,32.0,29.44,WNW,292,12.0,16.0,57,0.00,,,0.03,Rainwise IP-100,2013-04-25 13:29:00,
2013-04-25 09:34:00,46.8,32.0,29.44,North,360,7.0,17.0,55,0.00,,,0.03,Rainwise IP-100,2013-04-25 13:34:00,
2013-04-25 09:40:00,46.6,33.0,29.44,North,360,4.0,12.0,58,0.00,,,0.03,Rainwise IP-100,2013-04-25 13:40:00,
2013-04-25 09:45:00,48.4,33.0,29.45,NNW,337,6.0,10.0,55,0.00,,,0.03,Rainwise IP-100,2013-04-25 13:45:00,
2013-04-25 09:50:00,48.7,33.0,29.45,WNW,292,7.0,13.0,53,0.00,,,0.03,Rainwise IP-100,2013-04-25 13:50:00,
2013-04-25 09:55:00,48.5,33.0,29.45,NE,45,5.0,12.0,54,0.00,,,0.03,Rainwise IP-100,2013-04-25 13:55:00,
2013-04-25 10:00:00,49.2,32.0,29.45,West,270,7.0,11.0,50,0.00,,,0.03,Rainwise IP-100,2013-04-25 14:00:00,
2013-04-25 10:05:00,49.6,32.0,29.46,WNW,292,6.0,13.0,51,0.00,,,0.03,Rainwise IP-100,2013-04-25 14:05:00,
2013-04-25 10:10:00,49.8,32.0,29.47,NW,315,2.0,14.0,50,0.00,,,0.03,Rainwise IP-100,2013-04-25 14:10:00,
2013-04-25 10:16:00,50.1,32.0,29.46,WNW,292,7.0,15.0,50,0.00,,,0.03,Rainwise IP-100,2013-04-25 14:16:00,
2013-04-25 10:21:00,50.0,32.0,29.47,NW,315,11.0,17.0,50,0.00,,,0.03,Rainwise IP-100,2013-04-25 14:21:00,
2013-04-25 10:26:00,49.8,32.0,29.47,NW,315,3.0,15.0,49,0.00,,,0.03,Rainwise IP-100,2013-04-25 14:26:00,
2013-04-25 10:31:00,50.5,35.0,29.48,NW,315,7.0,11.0,53,0.00,,,0.03,Rainwise IP-100,2013-04-25 14:31:00,
2013-04-25 10:36:00,49.2,31.0,29.48,WSW,247,6.0,12.0,49,0.00,,,0.03,Rainwise IP-100,2013-04-25 14:36:00,
2013-04-25 10:41:00,48.3,32.0,29.48,WNW,292,10.0,15.0,52,0.00,,,0.03,Rainwise IP-100,2013-04-25 14:41:00,
2013-04-25 10:46:00,48.4,33.0,29.48,NW,315,12.0,17.0,56,0.00,,,0.03,Rainwise IP-100,2013-04-25 14:46:00,
2013-04-25 10:51:00,48.8,33.0,29.48,WSW,247,7.0,14.0,55,0.00,,,0.03,Rainwise IP-100,2013-04-25 14:51:00,
2013-04-25 10:57:00,49.5,33.0,29.48,West,270,7.0,14.0,54,0.00,,,0.03,Rainwise IP-100,2013-04-25 14:57:00,
2013-04-25 11:02:00,49.8,32.0,29.48,SW,225,5.0,15.0,50,0.00,,,0.03,Rainwise IP-100,2013-04-25 15:02:00,
2013-04-25 11:07:00,49.3,31.0,29.48,NW,315,11.0,15.0,49,0.00,,,0.03,Rainwise IP-100,2013-04-25 15:07:00,
2013-04-25 11:12:00,49.1,32.0,29.48,WNW,292,6.0,20.0,50,0.00,,,0.03,Rainwise IP-100,2013-04-25 15:12:00,
2013-04-25 11:17:00,49.7,33.0,29.48,North,360,7.0,15.0,52,0.00,,,0.03,Rainwise IP-100,2013-04-25 15:17:00,
2013-04-25 11:22:00,50.0,31.0,29.48,NW,315,6.0,12.0,48,0.00,,,0.03,Rainwise IP-100,2013-04-25 15:22:00,
2013-04-25 11:27:00,49.9,33.0,29.49,West,270,6.0,15.0,53,0.00,,,0.03,Rainwise IP-100,2013-04-25 15:27:00,
2013-04-25 11:33:00,49.1,32.0,29.49,SW,225,12.0,15.0,50,0.00,,,0.03,Rainwise IP-100,2013-04-25 15:33:00,
2013-04-25 11:38:00,49.6,31.0,29.49,NW,315,9.0,15.0,48,0.00,,,0.03,Rainwise IP-100,2013-04-25 15:38:00,
2013-04-25 11:43:00,49.5,33.0,29.49,West,270,4.0,19.0,53,0.00,,,0.03,Rainwise IP-100,2013-04-25 15:43:00,
2013-04-25 11:48:00,49.7,32.0,29.49,NW,315,7.0,15.0,50,0.00,,,0.03,Rainwise IP-100,2013-04-25 15:48:00,
2013-04-25 11:53:00,50.2,33.0,29.49,NW,315,10.0,16.0,53,0.00,,,0.03,Rainwise IP-100,2013-04-25 15:53:00,
2013-04-25 11:58:00,50.3,32.0,29.49,NNW,337,6.0,14.0,49,0.00,,,0.03,Rainwise IP-100,2013-04-25 15:58:00,
2013-04-25 12:03:00,50.5,31.0,29.49,West,270,12.0,17.0,47,0.00,,,0.03,Rainwise IP-100,2013-04-25 16:03:00,
2013-04-25 12:08:00,50.8,33.0,29.49,WNW,292,7.0,19.0,49,0.00,,,0.03,Rainwise IP-100,2013-04-25 16:08:00,
2013-04-25 12:14:00,50.4,32.0,29.49,West,270,5.0,15.0,48,0.00,,,0.03,Rainwise IP-100,2013-04-25 16:14:00,
2013-04-25 12:19:00,50.7,31.0,29.49,NW,315,12.0,16.0,47,0.00,,,0.03,Rainwise IP-100,2013-04-25 16:19:00,
2013-04-25 12:24:00,51.3,32.0,29.49,West,270,5.0,13.0,47,0.00,,,0.03,Rainwise IP-100,2013-04-25 16:24:00,
2013-04-25 12:29:00,51.6,35.0,29.49,NW,315,8.0,15.0,51,0.00,,,0.03,Rainwise IP-100,2013-04-25 16:29:00,
2013-04-25 12:34:00,51.7,32.0,29.49,West,270,6.0,13.0,45,0.00,,,0.03,Rainwise IP-100,2013-04-25 16:34:00,
2013-04-25 12:39:00,51.8,31.0,29.50,NW,315,12.0,15.0,44,0.00,,,0.03,Rainwise IP-100,2013-04-25 16:39:00,
2013-04-25 12:44:00,52.0,32.0,29.50,South,180,4.0,15.0,46,0.00,,,0.03,Rainwise IP-100,2013-04-25 16:44:00,
2013-04-25 12:50:00,52.2,32.0,29.50,NNW,337,6.0,12.0,46,0.00,,,0.03,Rainwise IP-100,2013-04-25 16:50:00,
2013-04-25 12:55:00,52.3,32.0,29.49,NE,45,6.0,13.0,46,0.00,,,0.03,Rainwise IP-100,2013-04-25 16:55:00,
2013-04-25 13:00:00,52.5,32.0,29.49,WNW,292,7.0,16.0,44,0.00,,,0.03,Rainwise IP-100,2013-04-25 17:00:00,
2013-04-25 13:05:00,52.1,31.0,29.49,West,270,8.0,14.0,44,0.00,,,0.03,Rainwise IP-100,2013-04-25 17:05:00,
2013-04-25 13:10:00,52.7,32.0,29.49,WNW,292,11.0,14.0,45,0.00,,,0.03,Rainwise IP-100,2013-04-25 17:10:00,
2013-04-25 13:15:00,52.7,29.0,29.49,WNW,292,17.0,17.0,41,0.00,,,0.03,Rainwise IP-100,2013-04-25 17:15:00,
2013-04-25 13:20:00,52.7,29.0,29.50,West,270,10.0,17.0,41,0.00,,,0.03,Rainwise IP-100,2013-04-25 17:20:00,
2013-04-25 13:25:00,52.3,29.0,29.50,WSW,247,9.0,14.0,41,0.00,,,0.03,Rainwise IP-100,2013-04-25 17:25:00,
2013-04-25 13:30:00,53.1,33.0,29.50,West,270,9.0,15.0,47,0.00,,,0.03,Rainwise IP-100,2013-04-25 17:30:00,
2013-04-25 13:36:00,52.7,31.0,29.50,SSW,202,7.0,13.0,42,0.00,,,0.03,Rainwise IP-100,2013-04-25 17:36:00,
2013-04-25 13:41:00,53.1,32.0,29.50,West,270,10.0,16.0,44,0.00,,,0.03,Rainwise IP-100,2013-04-25 17:41:00,
2013-04-25 13:46:00,53.5,32.0,29.50,WNW,292,13.0,16.0,43,0.00,,,0.03,Rainwise IP-100,2013-04-25 17:46:00,
2013-04-25 13:51:00,54.1,31.0,29.50,West,270,7.0,16.0,41,0.00,,,0.03,Rainwise IP-100,2013-04-25 17:51:00,
2013-04-25 13:56:00,53.8,29.0,29.50,WSW,247,11.0,15.0,39,0.00,,,0.03,Rainwise IP-100,2013-04-25 17:56:00,
2013-04-25 14:01:00,53.4,29.0,29.50,SW,225,6.0,16.0,40,0.00,,,0.03,Rainwise IP-100,2013-04-25 18:01:00,
2013-04-25 14:06:00,53.9,32.0,29.50,WSW,247,9.0,10.0,43,0.00,,,0.03,Rainwise IP-100,2013-04-25 18:06:00,
2013-04-25 14:11:00,54.7,31.0,29.50,WNW,292,8.0,12.0,40,0.00,,,0.03,Rainwise IP-100,2013-04-25 18:11:00,
2013-04-25 14:16:00,54.6,29.0,29.50,West,270,5.0,13.0,38,0.00,,,0.03,Rainwise IP-100,2013-04-25 18:16:00,
2013-04-25 14:22:00,54.9,32.0,29.50,WNW,292,6.0,18.0,42,0.00,,,0.03,Rainwise IP-100,2013-04-25 18:22:00,
2013-04-25 14:27:00,54.6,28.0,29.50,West,270,6.0,13.0,36,0.00,,,0.03,Rainwise IP-100,2013-04-25 18:27:00,
2013-04-25 14:32:00,54.4,31.0,29.50,West,270,9.0,13.0,40,0.00,,,0.03,Rainwise IP-100,2013-04-25 18:32:00,
2013-04-25 14:37:00,54.4,28.0,29.50,WSW,247,7.0,9.0,36,0.00,,,0.03,Rainwise IP-100,2013-04-25 18:37:00,
2013-04-25 14:42:00,55.1,32.0,29.50,North,360,9.0,13.0,41,0.00,,,0.03,Rainwise IP-100,2013-04-25 18:42:00,
2013-04-25 14:47:00,55.6,29.0,29.50,WSW,247,6.0,15.0,36,0.00,,,0.03,Rainwise IP-100,2013-04-25 18:47:00,
2013-04-25 14:52:00,55.1,32.0,29.50,NE,45,5.0,13.0,41,0.00,,,0.03,Rainwise IP-100,2013-04-25 18:52:00,
2013-04-25 14:57:00,55.9,32.0,29.50,SW,225,8.0,10.0,40,0.00,,,0.03,Rainwise IP-100,2013-04-25 18:57:00,
2013-04-25 15:03:00,55.6,29.0,29.50,NW,315,7.0,13.0,35,0.00,,,0.03,Rainwise IP-100,2013-04-25 19:03:00,
2013-04-25 15:08:00,56.1,31.0,29.49,NNW,337,7.0,12.0,38,0.00,,,0.03,Rainwise IP-100,2013-04-25 19:08:00,
2013-04-25 15:13:00,55.8,31.0,29.50,North,360,3.0,14.0,37,0.00,,,0.03,Rainwise IP-100,2013-04-25 19:13:00,
2013-04-25 15:18:00,56.4,29.0,29.50,WSW,247,11.0,14.0,34,0.00,,,0.03,Rainwise IP-100,2013-04-25 19:18:00,
2013-04-25 15:23:00,55.8,29.0,29.50,WSW,247,6.0,13.0,36,0.00,,,0.03,Rainwise IP-100,2013-04-25 19:23:00,
2013-04-25 15:28:00,55.4,28.0,29.50,SW,225,8.0,12.0,34,0.00,,,0.03,Rainwise IP-100,2013-04-25 19:28:00,
2013-04-25 15:33:00,55.6,29.0,29.50,NW,315,13.0,15.0,36,0.00,,,0.03,Rainwise IP-100,2013-04-25 19:33:00,
2013-04-25 15:39:00,55.8,29.0,29.50,West,270,2.0,15.0,36,0.00,,,0.03,Rainwise IP-100,2013-04-25 19:39:00,
2013-04-25 15:44:00,57.0,29.0,29.50,NNW,337,9.0,15.0,35,0.00,,,0.03,Rainwise IP-100,2013-04-25 19:44:00,
2013-04-25 15:49:00,57.2,29.0,29.50,NW,315,6.0,14.0,33,0.00,,,0.03,Rainwise IP-100,2013-04-25 19:49:00,
2013-04-25 15:54:00,57.7,29.0,29.50,North,360,5.0,12.0,34,0.00,,,0.03,Rainwise IP-100,2013-04-25 19:54:00,
2013-04-25 15:59:00,58.1,28.0,29.50,NE,45,5.0,10.0,30,0.00,,,0.03,Rainwise IP-100,2013-04-25 19:59:00,
2013-04-25 16:04:00,57.4,29.0,29.50,NNW,337,10.0,13.0,34,0.00,,,0.03,Rainwise IP-100,2013-04-25 20:04:00,
2013-04-25 16:09:00,57.3,29.0,29.51,NW,315,7.0,10.0,33,0.00,,,0.03,Rainwise IP-100,2013-04-25 20:09:00,
2013-04-25 16:14:00,57.6,28.0,29.51,WNW,292,6.0,9.0,32,0.00,,,0.03,Rainwise IP-100,2013-04-25 20:14:00,
2013-04-25 16:20:00,57.8,29.0,29.51,WSW,247,6.0,9.0,32,0.00,,,0.03,Rainwise IP-100,2013-04-25 20:20:00,
2013-04-25 16:25:00,57.2,29.0,29.51,WSW,247,9.0,12.0,33,0.00,,,0.03,Rainwise IP-100,2013-04-25 20:25:00,
2013-04-25 16:30:00,57.3,28.0,29.51,West,270,6.0,12.0,31,0.00,,,0.03,Rainwise IP-100,2013-04-25 20:30:00,
2013-04-25 16:35:00,57.6,29.0,29.51,NNW,337,9.0,12.0,34,0.00,,,0.03,Rainwise IP-100,2013-04-25 20:35:00,
2013-04-25 16:40:00,56.9,28.0,29.52,SW,225,6.0,10.0,31,0.00,,,0.03,Rainwise IP-100,2013-04-25 20:40:00,
2013-04-25 16:45:00,57.7,28.0,29.52,SSW,202,4.0,8.0,31,0.00,,,0.03,Rainwise IP-100,2013-04-25 20:45:00,
2013-04-25 16:50:00,58.0,29.0,29.52,SW,225,6.0,9.0,33,0.00,,,0.03,Rainwise IP-100,2013-04-25 20:50:00,
2013-04-25 16:56:00,57.4,26.0,29.52,WNW,292,6.0,13.0,29,0.00,,,0.03,Rainwise IP-100,2013-04-25 20:56:00,
2013-04-25 17:01:00,57.7,24.0,29.52,West,270,2.0,9.0,28,0.00,,,0.03,Rainwise IP-100,2013-04-25 21:01:00,
2013-04-25 17:06:00,57.8,26.0,29.52,North,360,6.0,12.0,28,0.00,,,0.03,Rainwise IP-100,2013-04-25 21:06:00,
2013-04-25 17:11:00,58.4,28.0,29.52,NNW,337,9.0,10.0,31,0.00,,,0.03,Rainwise IP-100,2013-04-25 21:11:00,
2013-04-25 17:16:00,57.9,26.0,29.52,WNW,292,7.0,10.0,29,0.00,,,0.03,Rainwise IP-100,2013-04-25 21:16:00,
2013-04-25 17:21:00,58.1,26.0,29.52,WNW,292,4.0,10.0,29,0.00,,,0.03,Rainwise IP-100,2013-04-25 21:21:00,
2013-04-25 17:26:00,57.9,26.0,29.52,NNW,337,7.0,9.0,28,0.00,,,0.03,Rainwise IP-100,2013-04-25 21:26:00,
2013-04-25 17:31:00,57.9,28.0,29.52,NNW,337,6.0,8.0,30,0.00,,,0.03,Rainwise IP-100,2013-04-25 21:31:00,
2013-04-25 17:37:00,58.3,26.0,29.52,NNW,337,3.0,9.0,28,0.00,,,0.03,Rainwise IP-100,2013-04-25 21:37:00,
2013-04-25 17:42:00,57.7,26.0,29.52,NW,315,5.0,9.0,29,0.00,,,0.03,Rainwise IP-100,2013-04-25 21:42:00,
2013-04-25 17:47:00,57.3,28.0,29.53,North,360,5.0,10.0,31,0.00,,,0.03,Rainwise IP-100,2013-04-25 21:47:00,
2013-04-25 17:52:00,57.7,26.0,29.53,NNW,337,6.0,8.0,29,0.00,,,0.03,Rainwise IP-100,2013-04-25 21:52:00,
2013-04-25 17:57:00,57.3,26.0,29.53,NNE,22,2.0,10.0,30,0.00,,,0.03,Rainwise IP-100,2013-04-25 21:57:00,
2013-04-25 18:02:00,58.0,26.0,29.53,NNW,337,7.0,12.0,29,0.00,,,0.03,Rainwise IP-100,2013-04-25 22:02:00,
2013-04-25 18:07:00,58.2,28.0,29.53,NNW,337,5.0,9.0,31,0.00,,,0.03,Rainwise IP-100,2013-04-25 22:07:00,
2013-04-25 18:13:00,57.7,28.0,29.53,NW,315,6.0,8.0,31,0.00,,,0.03,Rainwise IP-100,2013-04-25 22:13:00,
2013-04-25 18:18:00,57.6,29.0,29.54,NNW,337,7.0,8.0,33,0.00,,,0.03,Rainwise IP-100,2013-04-25 22:18:00,
2013-04-25 18:23:00,57.2,26.0,29.53,West,270,3.0,8.0,29,0.00,,,0.03,Rainwise IP-100,2013-04-25 22:23:00,
2013-04-25 18:28:00,57.1,26.0,29.54,WNW,292,6.0,7.0,30,0.00,,,0.03,Rainwise IP-100,2013-04-25 22:28:00,
2013-04-25 18:33:00,56.7,26.0,29.54,West,270,2.0,9.0,30,0.00,,,0.03,Rainwise IP-100,2013-04-25 22:33:00,
2013-04-25 18:38:00,56.4,24.0,29.54,West,270,6.0,6.0,28,0.00,,,0.03,Rainwise IP-100,2013-04-25 22:38:00,
2013-04-25 18:43:00,55.9,24.0,29.54,WNW,292,3.0,8.0,29,0.00,,,0.03,Rainwise IP-100,2013-04-25 22:43:00,
2013-04-25 18:48:00,55.6,26.0,29.54,West,270,7.0,7.0,30,0.00,,,0.03,Rainwise IP-100,2013-04-25 22:48:00,
2013-04-25 18:54:00,55.4,23.0,29.54,WSW,247,2.0,7.0,28,0.00,,,0.03,Rainwise IP-100,2013-04-25 22:54:00,
2013-04-25 18:59:00,55.1,24.0,29.54,West,270,3.0,8.0,29,0.00,,,0.03,Rainwise IP-100,2013-04-25 22:59:00,
2013-04-25 19:04:00,54.8,24.0,29.54,NW,315,3.0,5.0,29,0.00,,,0.03,Rainwise IP-100,2013-04-25 23:04:00,
2013-04-25 19:09:00,54.1,23.0,29.54,WNW,292,6.0,7.0,29,0.00,,,0.03,Rainwise IP-100,2013-04-25 23:09:00,
2013-04-25 19:14:00,53.5,26.0,29.54,WNW,292,2.0,6.0,33,0.00,,,0.03,Rainwise IP-100,2013-04-25 23:14:00,
2013-04-25 19:19:00,52.3,28.0,29.54,WNW,292,1.0,6.0,38,0.00,,,0.03,Rainwise IP-100,2013-04-25 23:19:00,
2013-04-25 19:24:00,50.9,28.0,29.54,West,270,1.0,3.0,40,0.00,,,0.03,Rainwise IP-100,2013-04-25 23:24:00,
2013-04-25 19:30:00,49.5,28.0,29.54,West,270,2.0,3.0,42,0.00,,,0.03,Rainwise IP-100,2013-04-25 23:30:00,
2013-04-25 19:35:00,48.8,26.0,29.54,WSW,247,3.0,6.0,40,0.00,,,0.03,Rainwise IP-100,2013-04-25 23:35:00,
2013-04-25 19:40:00,48.6,26.0,29.54,WSW,247,1.0,3.0,40,0.00,,,0.03,Rainwise IP-100,2013-04-25 23:40:00,
2013-04-25 19:45:00,47.9,28.0,29.54,WSW,247,0.0,2.0,44,0.00,,,0.03,Rainwise IP-100,2013-04-25 23:45:00,
2013-04-25 19:50:00,46.5,28.0,29.54,WNW,292,4.0,4.0,46,0.00,,,0.03,Rainwise IP-100,2013-04-25 23:50:00,
2013-04-25 19:55:00,45.9,26.0,29.54,WNW,292,4.0,4.0,46,0.00,,,0.03,Rainwise IP-100,2013-04-25 23:55:00,
2013-04-25 20:00:00,46.0,26.0,29.54,WNW,292,3.0,4.0,46,0.00,,,0.03,Rainwise IP-100,2013-04-26 00:00:00,
2013-04-25 20:05:00,45.9,28.0,29.54,WNW,292,1.0,4.0,48,0.00,,,0.03,Rainwise IP-100,2013-04-26 00:05:00,
2013-04-25 20:11:00,44.8,29.0,29.54,WNW,292,1.0,3.0,53,0.00,,,0.03,Rainwise IP-100,2013-04-26 00:11:00,
2013-04-25 20:16:00,43.8,29.0,29.55,WNW,292,2.0,4.0,56,0.00,,,0.03,Rainwise IP-100,2013-04-26 00:16:00,
2013-04-25 20:21:00,43.1,26.0,29.54,WNW,292,1.0,3.0,51,0.00,,,0.03,Rainwise IP-100,2013-04-26 00:21:00,
2013-04-25 20:26:00,42.5,26.0,29.54,WNW,292,1.0,2.0,51,0.00,,,0.03,Rainwise IP-100,2013-04-26 00:26:00,
2013-04-25 20:31:00,42.4,29.0,29.55,WNW,292,0.0,4.0,58,0.00,,,0.03,Rainwise IP-100,2013-04-26 00:31:00,
2013-04-25 20:36:00,42.6,29.0,29.55,West,270,2.0,5.0,57,0.00,,,0.03,Rainwise IP-100,2013-04-26 00:36:00,
2013-04-25 20:41:00,42.4,26.0,29.55,NNE,22,6.0,6.0,52,0.00,,,0.03,Rainwise IP-100,2013-04-26 00:41:00,
2013-04-25 20:47:00,42.5,29.0,29.56,North,360,0.0,7.0,57,0.00,,,0.03,Rainwise IP-100,2013-04-26 00:47:00,
2013-04-25 20:52:00,42.2,28.0,29.56,West,270,1.0,4.0,57,0.00,,,0.03,Rainwise IP-100,2013-04-26 00:52:00,
2013-04-25 20:57:00,41.5,29.0,29.56,West,270,1.0,3.0,58,0.00,,,0.03,Rainwise IP-100,2013-04-26 00:57:00,
2013-04-25 21:02:00,40.5,28.0,29.56,West,270,2.0,3.0,59,0.00,,,0.03,Rainwise IP-100,2013-04-26 01:02:00,
2013-04-25 21:07:00,40.8,26.0,29.56,West,270,0.0,5.0,55,0.00,,,0.03,Rainwise IP-100,2013-04-26 01:07:00,
2013-04-25 21:12:00,40.9,26.0,29.56,West,270,0.0,2.0,53,0.00,,,0.03,Rainwise IP-100,2013-04-26 01:12:00,
2013-04-25 21:17:00,40.5,28.0,29.57,West,270,0.0,3.0,59,0.00,,,0.03,Rainwise IP-100,2013-04-26 01:17:00,
2013-04-25 21:23:00,39.8,28.0,29.57,West,270,0.0,1.0,60,0.00,,,0.03,Rainwise IP-100,2013-04-26 01:23:00,
2013-04-25 21:28:00,38.6,28.0,29.57,West,270,0.0,0.0,61,0.00,,,0.03,Rainwise IP-100,2013-04-26 01:28:00,
2013-04-25 21:33:00,38.2,28.0,29.57,WNW,292,3.0,4.0,65,0.00,,,0.03,Rainwise IP-100,2013-04-26 01:33:00,
2013-04-25 21:38:00,38.3,26.0,29.57,WNW,292,0.0,4.0,63,0.00,,,0.03,Rainwise IP-100,2013-04-26 01:38:00,
2013-04-25 21:43:00,38.2,26.0,29.57,WNW,292,0.0,1.0,63,0.00,,,0.03,Rainwise IP-100,2013-04-26 01:43:00,
2013-04-25 21:48:00,37.7,28.0,29.57,WNW,292,2.0,2.0,65,0.00,,,0.03,Rainwise IP-100,2013-04-26 01:48:00,
2013-04-25 21:53:00,37.3,28.0,29.58,West,270,2.0,3.0,69,0.00,,,0.03,Rainwise IP-100,2013-04-26 01:53:00,
2013-04-25 21:58:00,37.6,28.0,29.57,WSW,247,0.0,3.0,65,0.00,,,0.03,Rainwise IP-100,2013-04-26 01:58:00,
2013-04-25 22:04:00,37.8,28.0,29.57,WSW,247,0.0,2.0,65,0.00,,,0.03,Rainwise IP-100,2013-04-26 02:04:00,
2013-04-25 22:09:00,37.7,28.0,29.58,WSW,247,0.0,1.0,65,0.00,,,0.03,Rainwise IP-100,2013-04-26 02:09:00,
2013-04-25 22:14:00,37.4,28.0,29.58,WSW,247,0.0,0.0,67,0.00,,,0.03,Rainwise IP-100,2013-04-26 02:14:00,
2013-04-25 22:19:00,36.8,28.0,29.58,WSW,247,0.0,1.0,67,0.00,,,0.03,Rainwise IP-100,2013-04-26 02:19:00,
2013-04-25 22:24:00,36.1,26.0,29.58,WSW,247,0.0,0.0,69,0.00,,,0.03,Rainwise IP-100,2013-04-26 02:24:00,
2013-04-25 22:29:00,35.4,26.0,29.58,WSW,247,1.0,2.0,72,0.00,,,0.03,Rainwise IP-100,2013-04-26 02:29:00,
2013-04-25 22:34:00,35.3,26.0,29.58,WSW,247,0.0,2.0,72,0.00,,,0.03,Rainwise IP-100,2013-04-26 02:34:00,
2013-04-25 22:40:00,35.6,28.0,29.58,WSW,247,3.0,3.0,73,0.00,,,0.03,Rainwise IP-100,2013-04-26 02:40:00,
2013-04-25 22:45:00,37.2,28.0,29.58,WSW,247,3.0,5.0,66,0.00,,,0.03,Rainwise IP-100,2013-04-26 02:45:00,
2013-04-25 22:50:00,38.1,26.0,29.58,WNW,292,3.0,5.0,61,0.00,,,0.03,Rainwise IP-100,2013-04-26 02:50:00,
2013-04-25 22:55:00,39.1,26.0,29.58,WNW,292,3.0,5.0,60,0.00,,,0.03,Rainwise IP-100,2013-04-26 02:55:00,
2013-04-25 23:00:00,38.5,29.0,29.58,WNW,292,1.0,3.0,65,0.00,,,0.03,Rainwise IP-100,2013-04-26 03:00:00,
2013-04-25 23:05:00,37.4,28.0,29.58,WNW,292,0.0,3.0,66,0.00,,,0.03,Rainwise IP-100,2013-04-26 03:05:00,
2013-04-25 23:10:00,36.3,26.0,29.58,WNW,292,0.0,0.0,67,0.00,,,0.03,Rainwise IP-100,2013-04-26 03:10:00,
2013-04-25 23:15:00,35.7,28.0,29.58,WNW,292,2.0,3.0,71,0.00,,,0.03,Rainwise IP-100,2013-04-26 03:15:00,
2013-04-25 23:21:00,35.7,28.0,29.58,WNW,292,0.0,3.0,71,0.00,,,0.03,Rainwise IP-100,2013-04-26 03:21:00,
2013-04-25 23:26:00,35.3,26.0,29.58,WNW,292,0.0,0.0,69,0.00,,,0.03,Rainwise IP-100,2013-04-26 03:26:00,
2013-04-25 23:31:00,34.8,26.0,29.58,WNW,292,0.0,2.0,72,0.00,,,0.03,Rainwise IP-100,2013-04-26 03:31:00,
2013-04-25 23:36:00,34.3,26.0,29.58,WNW,292,1.0,0.0,71,0.00,,,0.03,Rainwise IP-100,2013-04-26 03:36:00,
2013-04-25 23:41:00,33.9,26.0,29.58,WNW,292,0.0,2.0,72,0.00,,,0.03,Rainwise IP-100,2013-04-26 03:41:00,
2013-04-25 23:46:00,33.9,26.0,29.59,East,90,2.0,2.0,71,0.00,,,0.03,Rainwise IP-100,2013-04-26 03:46:00,
2013-04-25 23:51:00,36.2,26.0,29.58,East,90,0.0,5.0,68,0.00,,,0.03,Rainwise IP-100,2013-04-26 03:51:00,
2013-04-25 23:57:00,36.2,26.0,29.59,NW,315,1.0,5.0,69,0.00,,,0.03,Rainwise IP-100,2013-04-26 03:57:00,